PDT,Max TemperatureF,Mean TemperatureF,Min TemperatureF,Max Dew PointF,MeanDew PointF,Min DewpointF,Max Humidity, Mean Humidity, Min Humidity, Max Sea Level PressureIn, Mean Sea Level PressureIn, Min Sea Level PressureIn, Max VisibilityMiles, Mean VisibilityMiles, Min VisibilityMiles, Max Wind SpeedMPH, Mean Wind SpeedMPH, Max Gust SpeedMPH,PrecipitationIn, CloudCover, Events, WindDirDegrees
2012-10-1,82,66,49,38,34,31,56,36,16,30.30,30.15,29.95,10,10,10,7,2,18,0.00,0,,114
2012-10-2,79,64,48,44,30,12,50,33,15,30.17,29.97,29.85,10,9,2,32,11,39,0.00,1,,303
2012-10-3,64,52,39,24,19,14,42,31,20,30.43,30.33,30.21,10,10,6,10,3,14,0.00,0,,209
2012-10-4,62,50,38,29,24,19,59,41,22,30.32,30.28,30.24,10,10,9,9,3,12,0.00,0,,172
2012-10-5,64,49,34,27,19,12,52,33,13,30.40,30.33,30.28,10,10,7,9,2,10,0.00,0,,221
2012-10-6,65,49,33,22,17,12,44,30,16,30.39,30.30,30.21,10,8,4,9,2,12,0.00,0,,183
2012-10-7,70,54,38,26,23,16,54,36,18,30.23,30.12,29.99,10,7,5,7,2,9,0.00,0,,343
2012-10-8,70,55,39,31,27,23,62,40,18,30.01,29.97,29.89,10,8,6,8,2,9,0.00,0,,159
2012-10-9,73,56,39,31,28,23,58,39,19,30.12,30.04,29.99,10,9,7,8,2,10,0.00,0,,167
2012-10-10,73,58,42,34,33,28,65,44,23,30.02,29.94,29.84,10,10,7,8,1,10,0.00,0,,85
2012-10-11,73,57,41,37,35,32,65,46,27,30.01,29.90,29.80,10,8,3,7,2,10,0.00,0,,185
2012-10-12,65,53,41,48,39,33,72,53,34,29.95,29.86,29.80,9,7,5,8,1,29,0.08,3,Rain,97
2012-10-13,70,61,51,53,51,48,100,74,47,30.19,30.11,29.98,10,6,1,9,2,37,0.17,7,Rain,91
2012-10-14,70,60,49,55,52,47,93,73,53,30.18,30.06,29.96,10,9,5,8,3,17,0.23,3,Rain,85
2012-10-15,72,64,56,59,55,49,100,74,47,29.95,29.89,29.62,10,6,0,16,4,21,0.33,7,Fog-Rain,92
2012-10-16,68,58,48,58,40,31,61,51,40,30.12,29.84,29.52,10,10,7,39,17,51,0.11,2,Rain,256
2012-10-17,60,50,40,38,34,30,76,55,33,30.30,30.25,30.15,10,10,10,8,3,10,0.00,0,,209
2012-10-18,66,53,39,37,35,33,79,56,32,30.30,30.13,29.88,10,10,7,14,6,17,0.00,0,,90
2012-10-19,66,60,54,49,40,31,62,46,30,29.91,29.78,29.66,10,10,7,29,12,36,0.04,6,Rain,193
2012-10-20,60,49,38,50,34,25,79,53,26,29.91,29.82,29.69,10,10,8,30,11,38,T,4,Rain,243
2012-10-21,55,44,32,36,32,30,89,65,41,29.97,29.90,29.84,10,10,10,9,4,12,0.00,1,,102
2012-10-22,45,39,32,36,33,28,89,77,65,29.83,29.67,29.53,10,10,10,12,4,14,T,4,,100
2012-10-23,45,40,35,39,36,33,100,91,82,30.00,29.87,29.72,10,8,3,12,3,18,0.07,6,Rain,103
2012-10-24,45,40,34,38,34,31,92,79,65,30.16,30.05,30.00,10,10,10,14,5,16,T,4,Rain,109
2012-10-25,48,43,38,40,37,35,93,80,66,30.48,30.34,30.15,10,10,5,8,3,,0.04,7,Rain,180
2012-10-26,44,41,37,38,36,33,92,81,70,30.45,30.25,30.14,10,9,6,15,5,17,0.17,6,Rain,109
2012-10-27,52,46,39,44,41,37,96,85,74,30.13,30.05,29.89,10,9,4,23,5,29,0.28,8,Rain,139
2012-10-28,57,54,50,52,49,43,100,86,71,29.96,29.92,29.88,10,9,4,22,3,28,0.38,8,Rain,110
2012-10-29,68,60,51,55,51,45,100,76,52,30.05,29.93,29.86,10,6,0,12,3,28,0.25,7,Fog-Rain,222
2012-10-30,63,57,51,52,50,47,89,77,65,30.05,29.95,29.88,10,10,7,14,4,,T,5,,81
2012-10-31,68,60,52,53,49,42,89,69,48,29.88,29.79,29.70,10,10,10,12,5,20,T,1,,94